Le nostre stazioni meteo in Italia

Pubblicità
Il mio iltempo24.it
Matera, Italia (16314): Temperatura & dewpoint: 12.01.2020 09:00:00 - 18.01.2020 09:00:00 (CET)Matera, Italia (16314): velocità del vento: 12.01.2020 09:00:00 - 18.01.2020 09:00:00 (CET)Matera, Italia (16314): direzione del vento: 12.01.2020 09:00:00 - 18.01.2020 09:00:00 (CET)Matera, Italia (16314): reduced air pressure: 12.01.2020 09:00:00 - 18.01.2020 09:00:00 (CET)
Data & Tempo tt [°C] td [°C] ff [km/h] ff [kn] dd ppp [hPa]
18.01.2020 09:00:00 7,6 2,0 13 7 O 1025,7
18.01.2020 08:00:00 4,1 0,6 11 6 ONO 1026,5
18.01.2020 07:00:00 3,6 0,1 16 9 ONO 1026,8
18.01.2020 06:00:00 5,1 1,3 9 5 NNO 1026,4
18.01.2020 05:00:00 3,9 1,1 21 11 NNO 1026,6
18.01.2020 04:00:00 4,0 1,5 28 15 NO 1027,2
18.01.2020 03:00:00 3,9 1,6 28 15 NO 1027,8
18.01.2020 02:00:00 4,5 2,0 15 8 NNO 1027,8
18.01.2020 01:00:00 4,6 2,1 22 12 N 1027,9
18.01.2020 00:00:00 4,6 2,4 16 9 NNO 1028,2
17.01.2020 23:00:00 5,3 2,4 26 14 N 1028,3
17.01.2020 22:00:00 6,2 2,4 16 9 N 1028,2
17.01.2020 21:00:00 5,8 2,6 15 8 N 1028,2
17.01.2020 20:00:00 6,1 2,7 18 10 N 1028,0
17.01.2020 19:00:00 6,1 2,3 15 8 NNE 1028,1
17.01.2020 18:00:00 6,6 2,6 15 8 NNE 1027,7
17.01.2020 17:00:00 8,8 3,4 21 11 NE 1026,9
17.01.2020 16:00:00 10,5 3,7 26 14 NE 1026,5
17.01.2020 15:00:00 10,9 3,4 37 20 NNE 1026,3
17.01.2020 14:00:00 10,9 4,7 29 16 NE 1026,3
17.01.2020 13:00:00 10,3 5,4 24 13 NE 1027,0
17.01.2020 12:00:00 9,6 5,1 31 17 NNE 1027,6
17.01.2020 11:00:00 8,2 6,5 28 15 NNE 1028,3
17.01.2020 10:00:00 6,3 5,7 26 14 N 1028,8
17.01.2020 09:00:00 4,9 4,3 31 17 NNE 1029,0
17.01.2020 08:00:00 4,4 4,4 46 25 N 1028,8
17.01.2020 07:00:00 3,9 3,9 37 20 N 1029,0
17.01.2020 06:00:00 3,9 3,9 42 23 N 1028,7
17.01.2020 05:00:00 3,8 3,8 42 23 N 1028,7
17.01.2020 04:00:00 4,0 4,0 44 24 N 1028,9
17.01.2020 03:00:00 3,5 3,5 41 22 NNE 1029,5
17.01.2020 02:00:00 4,4 4,4 44 24 N 1029,2
17.01.2020 01:00:00 4,7 4,7 48 26 N 1028,9
17.01.2020 00:00:00 4,8 4,8 42 23 N 1029,4
16.01.2020 23:00:00 4,5 4,5 39 21 N 1029,8
16.01.2020 22:00:00 4,5 4,1 42 23 NNE 1029,7
16.01.2020 21:00:00 4,6 2,8 39 21 N 1029,9
16.01.2020 20:00:00 5,3 2,4 41 22 N 1030,0
16.01.2020 19:00:00 5,8 2,4 39 21 NNE 1030,0
16.01.2020 18:00:00 6,8 3,0 37 20 NNE 1029,7
16.01.2020 17:00:00 9,0 3,3 42 23 NNE 1028,9
16.01.2020 16:00:00 10,6 3,8 52 28 NNE 1028,4
16.01.2020 15:00:00 11,1 4,0 55 30 NE 1028,4
16.01.2020 14:00:00 11,3 4,0 54 29 NNE 1028,7
16.01.2020 13:00:00 10,9 5,4 50 27 NNE 1029,2
16.01.2020 12:00:00 10,6 6,3 54 29 NNE 1030,0
16.01.2020 11:00:00 9,1 6,7 44 24 NNE 1030,8
16.01.2020 10:00:00 7,2 7,2 46 25 NNE 1031,3
16.01.2020 09:00:00 4,5 4,5 39 21 NNE 1031,8
16.01.2020 08:00:00 3,5 3,5 35 19 NNE 1032,0
16.01.2020 07:00:00 3,2 3,2 35 19 NNE 1031,9
16.01.2020 06:00:00 2,9 2,9 35 19 NNE 1031,9
16.01.2020 05:00:00 3,4 3,4 31 17 NNE 1031,5
16.01.2020 04:00:00 3,4 3,4 29 16 NNE 1031,6
16.01.2020 03:00:00 4,3 4,3 31 17 NNE 1031,5
16.01.2020 02:00:00 5,5 5,5 34 18 NNE 1031,2
16.01.2020 01:00:00 5,0 5,0 26 14 NNE 1031,5
16.01.2020 00:00:00 5,1 5,0 21 11 N 1031,9
15.01.2020 23:00:00 5,2 4,6 18 10 NNE 1032,0
15.01.2020 22:00:00 5,5 4,1 18 10 N 1032,0
15.01.2020 21:00:00 5,9 3,9 16 9 NNE 1032,0
15.01.2020 20:00:00 6,2 5,3 16 9 NNE 1031,8
15.01.2020 19:00:00 6,7 5,0 18 10 NNE 1031,7
15.01.2020 18:00:00 7,5 4,6 22 12 NE 1031,1
15.01.2020 17:00:00 9,9 4,6 24 13 NE 1030,3
15.01.2020 16:00:00 11,9 5,0 22 12 NE 1029,6
15.01.2020 15:00:00 12,3 4,9 26 14 NE 1029,4
15.01.2020 14:00:00 12,2 4,1 26 14 NE 1029,3
15.01.2020 13:00:00 11,7 5,5 22 12 NE 1029,8
15.01.2020 12:00:00 10,5 7,0 18 10 NNE 1030,6
15.01.2020 11:00:00 9,0 6,6 24 13 NNE 1031,2
15.01.2020 10:00:00 7,7 5,0 22 12 NNE 1031,7
15.01.2020 09:00:00 5,6 4,2 18 10 NNE 1031,7
15.01.2020 08:00:00 4,5 3,0 18 10 NNE 1031,7
15.01.2020 07:00:00 4,8 3,4 15 8 NNE 1031,4
15.01.2020 06:00:00 4,8 2,8 16 9 NNE 1031,2
15.01.2020 05:00:00 5,3 3,3 5 3 NNE 1030,8
15.01.2020 04:00:00 5,8 4,4 13 7 NNE 1030,8
15.01.2020 03:00:00 5,8 4,3 9 5 NNE 1031,1
15.01.2020 02:00:00 6,1 5,2 9 5 NNE 1031,1
15.01.2020 01:00:00 6,7 6,4 8 4 N 1030,8
15.01.2020 00:00:00 6,3 6,0 2 1 NO 1030,9
14.01.2020 23:00:00 6,9 6,6 2 1 ONO 1030,8
14.01.2020 22:00:00 7,2 6,9 0 0 N 1030,7
14.01.2020 21:00:00 7,6 7,3 0 0 N 1030,6
14.01.2020 20:00:00 7,4 6,9 4 2 NE 1030,5
14.01.2020 19:00:00 7,4 6,6 9 5 E 1030,0
14.01.2020 18:00:00 8,0 6,6 15 8 E 1029,3
14.01.2020 17:00:00 9,6 6,5 15 8 ESE 1028,5
14.01.2020 16:00:00 12,3 6,7 28 15 E 1027,3
14.01.2020 15:00:00 13,0 4,1 8 4 N 1026,8
14.01.2020 14:00:00 11,9 4,8 0 0 N 1026,8
14.01.2020 13:00:00 12,2 6,4 4 2 NE 1026,9
14.01.2020 12:00:00 10,9 6,8 2 1 S 1027,8
14.01.2020 11:00:00 11,3 8,7 2 1 NNE 1027,9
14.01.2020 10:00:00 9,5 9,5 4 2 SO 1028,4
14.01.2020 09:00:00 7,3 7,3 0 0 N 1028,8
14.01.2020 08:00:00 5,5 5,5 2 1 SO 1028,7
14.01.2020 07:00:00 4,9 4,9 0 0 N 1029,0
14.01.2020 06:00:00 6,2 6,2 2 1 SO 1028,1
14.01.2020 05:00:00 6,4 6,4 4 2 SSO 1027,7
14.01.2020 04:00:00 5,6 5,6 5 3 SO 1027,8
14.01.2020 03:00:00 5,9 5,9 2 1 SSO 1028,0
14.01.2020 02:00:00 5,7 5,7 2 1 SO 1028,0
14.01.2020 01:00:00 5,5 5,5 8 4 ONO 1028,2
14.01.2020 00:00:00 6,6 6,6 5 3 OSO 1028,0
13.01.2020 23:00:00 6,8 6,7 4 2 SSO 1028,3
13.01.2020 22:00:00 6,2 5,8 4 2 SSO 1028,5
13.01.2020 21:00:00 7,0 6,6 8 4 S 1028,1
13.01.2020 20:00:00 6,7 6,6 8 4 SSE 1028,2
13.01.2020 19:00:00 7,0 6,6 5 3 SE 1028,0
13.01.2020 18:00:00 7,9 7,1 4 2 SE 1027,9
13.01.2020 17:00:00 8,5 7,1 8 4 ENE 1027,5
13.01.2020 16:00:00 8,8 7,1 13 7 E 1027,3
13.01.2020 15:00:00 8,7 7,1 11 6 E 1027,4
13.01.2020 14:00:00 8,6 7,0 13 7 E 1027,6
13.01.2020 13:00:00 8,4 6,7 16 9 E 1028,2
13.01.2020 12:00:00 8,9 6,5 22 12 E 1028,5
13.01.2020 11:00:00 7,8 5,6 16 9 ENE 1029,1
13.01.2020 10:00:00 6,6 3,9 - - - 1029,3
13.01.2020 09:00:00 6,1 3,0 21 11 NE 1029,3
13.01.2020 08:00:00 5,8 3,1 21 11 NNE 1029,2
13.01.2020 07:00:00 5,4 3,0 21 11 NNE 1029,3
13.01.2020 06:00:00 5,1 3,3 21 11 NNE 1029,1
13.01.2020 05:00:00 4,7 3,3 21 11 NNE 1029,0
13.01.2020 04:00:00 4,8 3,4 21 11 NNE 1029,2
13.01.2020 03:00:00 5,1 3,7 22 12 NNE 1029,5
13.01.2020 02:00:00 5,0 3,8 24 13 NNE 1029,5
13.01.2020 01:00:00 5,3 3,9 21 11 NNE 1029,3
13.01.2020 00:00:00 5,3 4,1 21 11 NNE 1029,6
12.01.2020 23:00:00 4,8 3,3 22 12 NNE 1029,5
12.01.2020 22:00:00 5,2 2,7 - - - 1029,5
12.01.2020 21:00:00 5,4 2,9 22 12 NNE 1029,3
12.01.2020 20:00:00 5,9 3,9 21 11 NNE 1028,9
12.01.2020 19:00:00 5,4 3,4 22 12 NE 1029,0
12.01.2020 18:00:00 5,8 3,8 28 15 ENE 1028,4
12.01.2020 17:00:00 7,0 3,2 26 14 ENE 1027,7
12.01.2020 16:00:00 8,7 5,0 34 18 NE 1027,0
12.01.2020 15:00:00 9,1 5,2 41 22 ENE 1026,7
12.01.2020 14:00:00 9,4 4,1 39 21 NE 1026,2
12.01.2020 13:00:00 9,4 4,7 41 22 NE 1026,7
12.01.2020 12:00:00 8,7 7,1 42 23 NE 1027,5
12.01.2020 11:00:00 7,0 6,9 28 15 NNE 1028,7
12.01.2020 10:00:00 5,9 5,9 28 15 N 1028,5
12.01.2020 09:00:00 5,3 5,3 18 10 N 1028,2

tt = Temperatura
td = dewpoint
ff = velocità del vento
dd = direzione del vento
ppp = reduced air pressure

Stazioni seguenti

WeatherPro
AMSI
MeteoEarth